Weather History for Montrose, CO

Change the Weather History Date:

Saturday, May 4, 2013

  Actual Average Record
Temperature  
Mean Temperature 55 °F 54 °F  
Max Temperature 73 °F 69 °F 87 °F (2000)
Min Temperature 36 °F 40 °F 32 °F (2001)
Degree Days  
Heating Degree Days 10 11  
Month to date heating degree days 70 45  
Since 1 July heating degree days 5973 5983  
Cooling Degree Days 0 0  
Month to date cooling degree days 0 0  
Year to date cooling degree days 0 0  
Growing Degree Days 4 (Base 50)    
Moisture  
Dew Point 16 °F    
Average Humidity 31    
Maximum Humidity 52    
Minimum Humidity 9    
Precipitation  
Precipitation 0.00 in 0.05 in 0.14 in (1999)
Month to date precipitation 0.11 0.19  
Year to date precipitation 2.18 3.41  
Sea Level Pressure  
Sea Level Pressure 29.81 in    
Wind  
Wind Speed 8 mph (ESE)    
Max Wind Speed 30 mph    
Max Gust Speed 40 mph    
Visibility 10 miles    
Events      
T = Trace of Precipitation, MM = Missing Value Source: NWS Daily Summary

Daily Weather History Graph

Daily Weather History Graph

Search for Another Location

Airport:

Trip Planner

Search our weather history database for the weather conditions in past years. The results will help you decide how hot, cold, wet, or windy it might be!

Date:

Astronomy

May. 04, 2013 Rise Set
Actual Time 6:10 AM MDT 8:06 PM MDT
Civil Twilight 5:41 AM MDT 8:35 PM MDT
Nautical Twilight 5:06 AM MDT 9:10 PM MDT
Astronomical Twilight 4:29 AM MDT 9:48 PM MDT
Moon 3:06 AM MDT (5/4) 3:11 PM MDT (5/4)
Length of Visible Light 14h 53m
Length of Day
13h 55m
Waning Crescent, 26% of the Moon is Illuminated
May 4
Waning Crescent
May 9
New
May 17
First Quarter
May 24
Full
May 31
Last Quarter

Hourly Weather History & Observations

Time (MDT) Temp. Windchill Dew Point Humidity Pressure Visibility Wind Dir Wind Speed Gust Speed Precip Events Conditions
12:53 AM 46.0 °F 41.0 °F 18.0 °F 33% 29.88 in 10.0 mi SE 10.4 mph - N/A   Clear
1:53 AM 44.1 °F 37.7 °F 18.0 °F 35% 29.86 in 10.0 mi ESE 12.7 mph - N/A   Clear
2:53 AM 42.1 °F 39.2 °F 18.0 °F 38% 29.86 in 10.0 mi SE 4.6 mph - N/A   Clear
3:53 AM 39.9 °F 34.5 °F 18.0 °F 41% 29.86 in 10.0 mi SE 8.1 mph - N/A   Clear
4:53 AM 36.0 °F 29.0 °F 19.0 °F 50% 29.88 in 10.0 mi SSE 9.2 mph - N/A   Clear
5:53 AM 37.9 °F 31.5 °F 18.0 °F 45% 29.86 in 10.0 mi SSE 9.2 mph - N/A   Clear
6:53 AM 37.9 °F 32.7 °F 18.0 °F 45% 29.88 in 10.0 mi South 6.9 mph - N/A   Clear
7:53 AM 44.1 °F - 19.0 °F 37% 29.89 in 10.0 mi Calm Calm - N/A   Clear
8:53 AM 51.1 °F - 19.9 °F 29% 29.88 in 10.0 mi Variable 4.6 mph - N/A   Clear
9:53 AM 55.9 °F - 19.9 °F 25% 29.86 in 10.0 mi Calm Calm - N/A   Clear
10:53 AM 62.1 °F - 18.0 °F 18% 29.84 in 10.0 mi Calm Calm - N/A   Clear
11:53 AM 68.0 °F - 10.9 °F 11% 29.81 in 10.0 mi Variable 5.8 mph - N/A   Clear
12:53 PM 70.0 °F - 9.0 °F 9% 29.77 in 10.0 mi East 6.9 mph - N/A   Clear
1:53 PM 70.0 °F - 8.1 °F 9% 29.76 in 10.0 mi NE 3.5 mph - N/A   Clear
2:53 PM 70.0 °F - 8.1 °F 9% 29.75 in 10.0 mi NNE 4.6 mph - N/A   Clear
3:53 PM 71.1 °F - 9.0 °F 9% 29.73 in 10.0 mi East 8.1 mph - N/A   Clear
4:53 PM 70.0 °F - 12.0 °F 11% 29.74 in 10.0 mi ESE 6.9 mph - N/A   Clear
5:53 PM 69.1 °F - 12.9 °F 11% 29.74 in 10.0 mi ESE 13.8 mph 17.3 mph N/A   Clear
6:53 PM 69.1 °F - 12.9 °F 11% 29.74 in 10.0 mi ESE 9.2 mph - N/A   Clear
7:53 PM 66.9 °F - 14.0 °F 13% 29.73 in 10.0 mi South 10.4 mph - N/A   Clear
8:53 PM 64.0 °F - 19.9 °F 18% 29.74 in 10.0 mi ESE 16.1 mph 28.8 mph N/A   Clear
9:53 PM 61.0 °F - 21.0 °F 21% 29.76 in 10.0 mi SE 9.2 mph - N/A   Clear
10:53 PM 59.0 °F - 26.1 °F 28% 29.76 in 10.0 mi ESE 19.6 mph 28.8 mph N/A   Clear
11:53 PM 57.9 °F - 27.0 °F 31% 29.76 in 10.0 mi ESE 15.0 mph - N/A   Clear